Location: The Saddle
(36.8333°N, 80.3417°W)
Time: 21:40:41
(UTC-05:00)

Vanguard 2 - Visible Passes

Search period start: 22 January 2022 00:00
Search period end: 01 February 2022 00:00
Orbit: 553 x 2936 km, 32.9° (Epoch: 22 January)

Date Brightness Start Highest point End Pass type
(mag) Time Alt. Az. Time Alt. Az. Time Alt. Az.
22 Jan 11.5 01:48:04 20° ESE 01:48:04 20° ESE 01:51:32 10° ESE visible
22 Jan 10.7 03:49:28 40° S 03:49:28 40° S 04:00:53 10° SSE visible
22 Jan 11.3 05:50:52 14° WSW 05:55:55 16° SW 06:03:55 10° SSW visible
22 Jan 10.1 19:12:35 10° S 19:19:06 26° SE 19:22:24 22° ESE visible
22 Jan 9.9 21:18:07 10° WSW 21:23:47 43° SW 21:23:47 43° SW visible
23 Jan 11.4 02:04:48 22° SE 02:04:48 22° SE 02:09:02 10° SE visible
23 Jan 10.8 04:06:11 34° SSW 04:06:11 34° SSW 04:17:25 10° SSE visible
23 Jan 9.8 19:29:07 10° SSW 19:36:10 34° SE 19:39:04 30° ESE visible
23 Jan 10.1 21:35:31 10° WSW 21:40:27 39° SW 21:40:27 39° SW visible
24 Jan 11.4 02:21:32 23° SE 02:21:32 23° SE 02:26:19 10° SE visible
24 Jan 11.0 04:22:55 28° SSW 04:22:55 28° SSW 04:33:29 10° S visible
24 Jan 9.5 19:46:00 10° SW 19:53:22 43° SSE 19:55:42 38° ESE visible
24 Jan 10.3 21:53:01 10° WSW 21:57:05 33° WSW 21:57:05 33° WSW visible
25 Jan 11.3 02:38:15 24° SSE 02:38:15 24° SSE 02:43:23 10° SE visible
25 Jan 11.2 04:39:39 21° SW 04:39:39 21° SW 04:48:52 10° S visible
25 Jan 10.1 17:59:08 10° S 18:03:06 16° SE 18:08:09 10° E visible
25 Jan 9.3 20:03:07 10° SW 20:10:42 52° SSE 20:12:19 48° SE visible
25 Jan 10.6 22:10:34 10° W 22:13:42 26° WSW 22:13:42 26° WSW visible
26 Jan 11.4 02:54:58 22° SSE 02:54:58 22° SSE 03:00:07 10° SSE visible
26 Jan 11.4 04:56:22 15° SW 04:56:22 15° SW 05:02:58 10° SSW visible
26 Jan 9.8 18:15:04 10° S 18:20:05 23° SE 18:27:09 10° E visible
26 Jan 9.1 20:20:23 10° WSW 20:28:10 60° SSE 20:28:55 59° SE visible
26 Jan 10.8 22:28:10 10° W 22:30:17 20° W 22:30:17 20° W visible
27 Jan 11.4 03:11:40 20° S 03:11:40 20° S 03:16:28 10° SSE visible
27 Jan 9.5 18:31:38 10° SSW 18:37:11 31° SE 18:44:06 14° E visible
27 Jan 9.1 20:37:48 10° WSW 20:45:29 67° S 20:45:29 67° S visible
27 Jan 11.1 22:45:48 10° W 22:46:52 15° W 22:46:52 15° W visible
28 Jan 11.5 03:28:20 17° S 03:28:20 17° S 03:32:17 10° S visible
28 Jan 9.2 18:48:33 10° SW 18:54:24 40° SSE 19:00:39 19° E visible
28 Jan 9.2 20:55:17 10° WSW 21:02:02 64° SW 21:02:02 64° SW visible
29 Jan 11.6 03:44:58 13° SSW 03:44:58 13° SSW 03:47:16 10° S visible
29 Jan 8.9 19:05:41 10° SW 19:11:44 49° SSE 19:17:12 25° E visible
29 Jan 9.4 21:12:49 10° W 21:18:35 54° WSW 21:18:35 54° WSW visible
30 Jan 8.8 19:23:00 10° WSW 19:29:13 58° SSE 19:33:44 32° E visible
30 Jan 9.7 21:30:23 10° W 21:35:06 43° WSW 21:35:06 43° WSW visible
31 Jan 8.7 19:40:24 10° WSW 19:46:46 64° SSE 19:50:16 40° ESE visible
31 Jan 10.1 21:47:58 10° W 21:51:38 33° W 21:51:38 33° W visible
